Location: Brno
(49.2000°N, 16.6330°E)
Time: 18:04:32
(UTC+02:00)

Transit 4A - Pass Details

Date: 04 August 2021
Orbit: 871 x 974 km, 66.8° (Epoch: 16 September)

Event Time Altitude Azimuth Distance (km) Brightness Sun altitude
Rises 06:24:30 0° 322° (NW) 3,469 10.7 7.4°
Reaches altitude 10° 06:27:34 10° 338° (NNW) 2,533 10.2 7.9°
Maximum altitude 06:32:04 22° 28° (NNE) 1,822 10.2 8.6°
Drops below altitude 10° 06:36:36 10° 79° (ENE) 2,557 13.5 9.3°
Sets 06:39:42 0° 94° (E) 3,510 12.5 9.8°
